Stations météo

Publicité
St-Sauveur, France (7300): Température de l'air & dewpoint: 14.09.2018 06:00:00 - 20.09.2018 06:00:00 (CEST)St-Sauveur, France (7300): Vitesse du vent & gusts: 14.09.2018 06:00:00 - 20.09.2018 06:00:00 (CEST)St-Sauveur, France (7300): Direction du vent: 14.09.2018 06:00:00 - 20.09.2018 06:00:00 (CEST)St-Sauveur, France (7300): reduced air pressure: 14.09.2018 06:00:00 - 20.09.2018 06:00:00 (CEST)St-Sauveur, France (7300): visibility: 14.09.2018 06:00:00 - 20.09.2018 06:00:00 (CEST)St-Sauveur, France (7300): Quantités de précipitations: 14.09.2018 06:00:00 - 20.09.2018 06:00:00 (CEST)
Date & Time tt [°C] td [°C] ff [km/h] ff [knt] fx [km/h] fx [knt] dd ppp [hPa] vv [km] rr [mm]
20.09.2018 06:00:00 17,5 16,9 12 7 27 15 WSW 1019,9 - 0,2
20.09.2018 05:00:00 17,6 17,0 13 7 23 12 SW 1020,1 - 0,0
20.09.2018 04:00:00 17,6 17,0 14 7 25 13 SW 1020,3 - 0,0
20.09.2018 03:00:00 17,5 16,9 14 8 24 13 SW 1020,4 - 0,0
20.09.2018 02:00:00 17,5 17,0 13 7 24 13 SW 1020,7 18 0,0
20.09.2018 01:00:00 17,6 17,1 12 6 22 12 SW 1021,3 - 0,0
20.09.2018 00:00:00 17,6 17,0 12 6 20 11 SW 1021,2 - 0,2
19.09.2018 23:00:00 17,7 17,1 13 7 19 11 SW 1021,3 15 0,0
19.09.2018 22:00:00 17,7 16,9 10 5 16 8 SW 1021,4 - 0,0
19.09.2018 21:00:00 18,1 16,8 10 5 16 9 SW 1021,1 - 0,0
19.09.2018 20:00:00 19,3 17,1 8 5 19 10 WSW 1020,9 15 0,0
19.09.2018 19:00:00 21,5 17,7 6 4 23 12 WSW 1020,8 - 0,0
19.09.2018 18:00:00 22,3 17,7 10 5 25 13 SW 1020,6 - 0,0
19.09.2018 17:00:00 22,7 17,6 12 6 29 15 SW 1020,9 - 0,0
19.09.2018 16:00:00 23,2 17,6 12 7 29 15 SW 1021,2 - 0,0
19.09.2018 15:00:00 23,3 17,1 14 8 31 17 SW 1021,3 - 0,0
19.09.2018 14:00:00 22,7 17,4 12 7 31 17 SW 1021,4 - 0,0
19.09.2018 13:00:00 23,7 17,7 15 8 33 18 SW 1021,3 - 0,0
19.09.2018 12:00:00 22,8 17,5 16 9 29 15 SW 1021,1 - 0,0
19.09.2018 11:00:00 21,7 17,7 13 7 27 15 SW 1020,7 10 0,0
19.09.2018 10:00:00 19,5 17,6 14 8 26 14 SW 1019,7 - 0,0
19.09.2018 09:00:00 17,8 17,3 11 6 23 13 SW 1019,0 - 0,0
19.09.2018 08:00:00 17,1 16,6 12 6 23 12 SW 1018,6 8 0,0
19.09.2018 07:00:00 16,8 16,2 10 5 17 9 WSW 1018,7 - 0,0
19.09.2018 06:00:00 17,1 16,3 10 6 22 12 WSW 1018,5 - 0,0
19.09.2018 05:00:00 17,4 16,3 12 6 23 12 WSW 1018,4 10 0,0
19.09.2018 04:00:00 17,9 16,6 12 7 26 14 WSW 1018,5 - 0,0
19.09.2018 03:00:00 18,0 17,0 12 7 26 14 W 1018,7 - 0,2
19.09.2018 02:00:00 17,6 16,8 13 7 23 12 SW 1018,5 - 0,0
19.09.2018 01:00:00 17,7 16,6 16 9 23 12 SW 1018,3 - 0,0
19.09.2018 00:00:00 18,1 17,1 11 6 26 14 WSW 1018,6 - 0,0
18.09.2018 23:00:00 18,2 17,4 10 5 22 12 SW 1018,4 - 0,0
18.09.2018 22:00:00 17,8 17,0 13 7 20 11 SSW 1018,1 - 0,0
18.09.2018 21:00:00 18,2 17,2 10 6 17 9 S 1017,6 - 0,0
18.09.2018 20:00:00 19,0 16,8 10 6 16 9 S 1017,1 - 0,0
18.09.2018 19:00:00 20,9 17,3 7 4 14 7 S 1016,8 - 0,0
18.09.2018 18:00:00 20,8 17,6 6 3 14 8 SSW 1017,0 - 0,0
18.09.2018 17:00:00 22,2 16,9 7 4 19 10 W 1016,9 8 0,0
18.09.2018 16:00:00 22,0 17,4 8 4 22 12 W 1016,9 - 0,0
18.09.2018 15:00:00 22,4 18,2 11 6 21 11 WSW 1017,0 - 0,0
18.09.2018 14:00:00 22,3 18,5 10 6 22 12 SW 1017,1 - 0,0
18.09.2018 13:00:00 22,3 18,7 12 7 24 13 WSW 1017,0 - 0,0
18.09.2018 12:00:00 21,5 18,9 10 5 19 10 SW 1016,7 - 0,0
18.09.2018 11:00:00 20,9 18,7 12 6 21 12 SW 1016,3 10 0,0
18.09.2018 10:00:00 19,4 18,9 12 7 22 12 SW 1015,8 - 0,0
18.09.2018 09:00:00 18,3 18,0 11 6 18 10 SW 1015,1 - 0,0
18.09.2018 08:00:00 18,1 17,6 10 5 20 11 WSW 1014,5 8 0,0
18.09.2018 07:00:00 17,9 17,4 14 7 24 13 SW 1014,1 - 0,0
18.09.2018 06:00:00 18,2 17,7 16 9 23 13 SSW 1014,2 - 0,0
18.09.2018 05:00:00 18,4 17,7 11 6 14 8 SW 1014,0 10 0,0
18.09.2018 04:00:00 18,8 17,8 7 4 25 14 WSW 1013,9 - 0,0
18.09.2018 03:00:00 18,9 18,1 12 7 33 18 W 1013,5 - 0,0
18.09.2018 02:00:00 18,8 18,3 15 8 33 18 W 1013,9 - 0,0
18.09.2018 01:00:00 18,9 18,4 14 7 22 12 SW 1013,3 - 0,0
18.09.2018 00:00:00 18,8 18,1 13 7 22 12 SW 1013,3 - 0,0
17.09.2018 23:00:00 18,9 18,1 15 8 22 12 SW 1013,1 - 0,0
17.09.2018 22:00:00 19,4 18,4 11 6 23 12 SW 1012,9 - 0,0
17.09.2018 21:00:00 19,7 18,0 13 7 22 12 SW 1012,6 - 0,0
17.09.2018 20:00:00 19,5 17,3 11 6 22 12 SW 1012,5 25 0,0
17.09.2018 19:00:00 20,4 16,8 13 7 23 13 S 1012,6 - 0,0
17.09.2018 18:00:00 20,3 16,7 11 6 21 12 SSE 1013,0 - 0,0
17.09.2018 17:00:00 20,6 16,8 11 6 24 13 SSE 1013,5 - 0,0
17.09.2018 16:00:00 21,8 16,3 12 7 23 12 SSE 1014,2 - 0,0
17.09.2018 15:00:00 22,4 16,7 16 9 27 14 SE 1014,6 - 0,0
17.09.2018 14:00:00 20,7 15,9 14 7 26 14 SSE 1015,0 25 0,0
17.09.2018 13:00:00 22,1 15,7 16 8 25 13 SE 1015,5 - 0,0
17.09.2018 12:00:00 20,7 15,5 10 6 21 12 SE 1015,9 - 0,0
17.09.2018 11:00:00 18,9 13,7 8 4 18 10 ESE 1016,6 - 0,0
17.09.2018 10:00:00 17,6 12,9 9 5 17 9 ESE 1017,0 - 0,0
17.09.2018 09:00:00 14,3 13,2 10 6 14 7 ENE 1017,2 - 0,0
17.09.2018 08:00:00 12,9 12,0 10 5 16 8 NE 1017,6 25 0,0
17.09.2018 07:00:00 13,6 12,5 13 7 15 8 NE 1017,6 - 0,0
17.09.2018 06:00:00 13,3 12,5 11 6 15 8 ENE 1017,9 - 0,0
17.09.2018 05:00:00 13,8 12,4 11 6 17 9 E 1017,9 25 0,2
17.09.2018 04:00:00 13,8 12,4 13 7 14 8 NNE 1019,2 - 0,0
17.09.2018 03:00:00 14,0 12,7 13 7 15 8 NE 1019,5 - 0,0
17.09.2018 02:00:00 14,8 13,5 12 6 16 9 NNE 1020,0 25 0,0
17.09.2018 01:00:00 15,5 14,4 11 6 20 11 N 1020,1 - 0,0
17.09.2018 00:00:00 16,2 15,2 14 8 22 12 NNW 1020,6 - 0,0
16.09.2018 23:00:00 15,2 13,9 13 7 15 8 NNW 1020,8 - 0,0
16.09.2018 22:00:00 16,2 14,4 11 6 15 8 NNW 1020,7 - 0,0
16.09.2018 21:00:00 17,4 14,9 9 5 26 14 N 1020,2 - 0,0
16.09.2018 20:00:00 19,0 14,5 15 8 28 15 NW 1020,3 20 0,0
16.09.2018 19:00:00 20,9 12,3 7 4 13 7 NNW 1020,1 - 0,0
16.09.2018 18:00:00 21,8 12,1 7 4 14 7 NNE 1019,5 - 0,0
16.09.2018 17:00:00 21,8 12,6 10 5 17 9 N 1019,9 20 0,0
16.09.2018 16:00:00 20,7 14,3 4 2 16 9 S 1020,5 - 0,0
16.09.2018 15:00:00 21,5 14,6 6 3 16 8 WSW 1020,7 - 0,0
16.09.2018 14:00:00 23,8 14,2 5 3 13 7 NNE 1020,4 20 0,0
16.09.2018 13:00:00 21,9 13,0 4 2 10 5 W 1020,8 - 0,0
16.09.2018 12:00:00 20,9 12,1 4 2 13 7 SW 1021,0 - 0,0
16.09.2018 11:00:00 19,7 12,5 7 4 16 9 S 1020,9 - 0,0
16.09.2018 10:00:00 18,1 12,1 11 6 18 10 SE 1020,4 - 0,0
16.09.2018 09:00:00 13,0 11,4 10 6 16 9 ESE 1020,0 - 0,0
16.09.2018 08:00:00 12,5 10,0 11 6 16 9 E 1019,9 25 0,0
16.09.2018 07:00:00 12,6 10,0 12 7 18 10 E 1019,6 - 0,0
16.09.2018 06:00:00 13,1 10,5 11 6 16 9 ENE 1019,8 - 0,0
16.09.2018 05:00:00 13,1 9,3 12 6 18 10 E 1020,0 25 0,0
16.09.2018 04:00:00 14,0 9,8 13 7 20 11 E 1020,4 - 0,0
16.09.2018 03:00:00 14,8 10,4 13 7 21 11 ENE 1020,9 - 0,0
16.09.2018 02:00:00 15,3 10,9 12 7 19 10 ENE 1021,4 25 0,0
16.09.2018 01:00:00 15,7 10,9 13 7 19 10 ENE 1021,6 - 0,0
16.09.2018 00:00:00 15,7 10,7 13 7 19 10 ENE 1022,0 - 0,0
15.09.2018 23:00:00 14,9 12,0 12 7 18 10 NE 1022,5 25 0,0
15.09.2018 22:00:00 15,6 12,9 14 8 18 10 N 1022,7 - 0,0
15.09.2018 21:00:00 16,1 12,5 14 7 21 11 N 1022,4 - 0,0
15.09.2018 20:00:00 17,4 11,9 13 7 24 13 N 1022,2 25 0,0
15.09.2018 19:00:00 19,3 12,3 13 7 25 13 N 1022,2 - 0,0
15.09.2018 18:00:00 21,2 11,2 14 7 23 12 NNW 1022,6 - 0,0
15.09.2018 17:00:00 20,8 10,9 13 7 26 14 NNW 1023,0 25 0,0
15.09.2018 16:00:00 21,2 10,7 15 8 26 14 N 1023,4 - 0,0
15.09.2018 15:00:00 20,4 9,6 14 8 22 12 NNW 1024,3 - 0,0
15.09.2018 14:00:00 21,6 9,8 7 4 18 10 ESE 1024,8 25 0,0
15.09.2018 13:00:00 19,7 9,8 10 6 24 13 SSE 1025,5 - 0,0
15.09.2018 12:00:00 18,9 10,5 9 5 22 12 ESE 1026,0 - 0,0
15.09.2018 11:00:00 18,2 11,0 12 7 28 15 E 1026,0 25 0,0
15.09.2018 10:00:00 16,0 11,0 11 6 27 15 E 1025,9 - 0,0
15.09.2018 09:00:00 13,2 10,6 12 6 29 15 ENE 1025,7 - 0,0
15.09.2018 08:00:00 12,0 10,1 13 7 25 14 ENE 1025,5 25 0,0
15.09.2018 07:00:00 12,5 10,4 14 8 26 14 ENE 1025,2 - 0,0
15.09.2018 06:00:00 13,2 10,7 16 8 26 14 ENE 1024,8 - 0,0
15.09.2018 05:00:00 13,4 10,4 16 9 29 15 NE 1025,1 25 0,0
15.09.2018 04:00:00 13,8 9,8 17 9 29 15 NE 1025,3 - 0,0
15.09.2018 03:00:00 14,3 9,9 19 10 29 16 NE 1025,4 - 0,0
15.09.2018 02:00:00 14,3 11,6 17 9 25 14 NE 1025,2 25 0,0
15.09.2018 01:00:00 14,3 13,0 14 7 22 12 N 1025,0 - 0,0
15.09.2018 00:00:00 15,0 13,4 14 7 27 15 N 1024,8 - 0,0
14.09.2018 23:00:00 15,3 12,8 16 9 30 16 N 1024,8 - 0,0
14.09.2018 22:00:00 15,4 11,6 16 9 36 19 NNW 1024,5 - 0,0
14.09.2018 21:00:00 15,6 12,0 18 10 34 18 NNW 1024,1 - 0,0
14.09.2018 20:00:00 16,4 11,3 21 11 36 19 NNW 1023,7 25 0,0
14.09.2018 19:00:00 18,6 10,4 16 9 29 15 NNW 1023,4 - 0,0
14.09.2018 18:00:00 19,3 11,1 14 8 33 18 N 1023,3 - 0,0
14.09.2018 17:00:00 19,3 10,6 16 9 32 17 N 1023,3 25 0,0
14.09.2018 16:00:00 19,3 10,8 17 9 36 19 N 1023,4 - 0,0
14.09.2018 15:00:00 19,0 10,8 16 9 30 16 N 1023,7 - 0,0
14.09.2018 14:00:00 19,4 9,8 19 10 29 16 N 1023,8 - 0,0
14.09.2018 13:00:00 19,4 9,6 14 8 24 13 N 1023,8 - 0,0
14.09.2018 12:00:00 19,0 9,7 11 6 22 12 NE 1023,9 - 0,0
14.09.2018 11:00:00 17,3 10,7 10 6 29 15 NE 1023,6 25 0,0
14.09.2018 10:00:00 15,8 10,5 17 9 28 15 NNE 1023,3 - 0,0
14.09.2018 09:00:00 13,8 11,5 16 9 26 14 NNE 1023,0 - 0,0
14.09.2018 08:00:00 13,0 10,9 14 8 23 12 NNE 1022,8 20 0,0
14.09.2018 07:00:00 13,1 11,3 14 7 22 12 NNE 1022,4 - 0,0
14.09.2018 06:00:00 13,5 11,5 17 9 23 13 NNE 1022,4 - 0,0

tt = Température de l'air
td = dewpoint
ff = Vitesse du vent
fx = gusts
dd = Direction du vent
ppp = reduced air pressure
vv = visibility
rr = Quantités de précipitations

stations d'obs. à proximité